CW3643 Weather Reports


time (UTC)temp
C
wind
direction
speed
KPH
gust
KPH
rain 1hr
cm
rain 24hr
cm
rain mn
cm
humidity
%
barometer
mb
20180218181021 15 39 8.0 17.7 0.00 0.00 0.00 37 1021.1
20180218180016 16 137 8.0 16.1 0.00 0.00 0.00 37 1021.1
20180218175015 16 52 9.7 20.9 0.00 0.00 0.00 36 1021.0
20180218174112 16 67 8.0 19.3 0.00 0.00 0.00 38 1021.1
20180218172030 16 59 12.9 20.9 0.00 0.00 0.00 39 1020.9
20180218171019 16 47 14.5 25.7 0.00 0.00 0.00 37 1020.9
20180218165028 16 57 12.9 29.0 0.00 0.00 0.00 36 1021.0
20180218162026 17 26 11.3 24.1 0.00 0.00 0.00 36 1021.0
20180218161015 17 26 16.1 27.4 0.00 0.00 0.00 37 1021.0
20180218160013 17 205 11.3 22.5 0.00 0.00 0.00 38 1021.0
20180218155028 16 52 16.1 27.4 0.00 0.00 0.00 39 1021.1
20180218154011 16 56 14.5 25.7 0.00 0.00 0.00 40 1021.1
20180218153020 16 77 16.1 25.7 0.00 0.00 0.00 41 1021.0
20180218152019 16 39 9.7 27.4 0.00 0.00 0.00 43 1021.1
20180218151023 16 49 14.5 24.1 0.00 0.00 0.00 43 1021.1
20180218150140 16 30 12.9 29.0 0.00 0.00 0.00 44 1021.1
20180217215015 11 343 6.4 12.9 0.00 0.10 0.03 79 1025.0
20180217214025 11 359 8.0 12.9 0.00 0.10 0.03 79 1025.1
20180217212024 11 44 3.2 19.3 0.00 0.10 0.03 80 1025.2
20180217211021 11 1 11.3 22.5 0.00 0.10 0.03 80 1025.0
20180217210106 11 245 12.9 22.5 0.00 0.10 0.03 80 1024.9
20180217205104 11 331 12.9 24.1 0.00 0.10 0.03 81 1024.9
20180217204017 11 339 16.1 24.1 0.00 0.10 0.03 81 1024.9
20180217202020 11 326 17.7 30.6 0.00 0.10 0.03 80 1024.9
20180217201026 11 357 16.1 29.0 0.00 0.10 0.03 80 1024.8
20180217200019 11 332 17.7 25.7 0.00 0.10 0.03 79 1024.7
20180217195020 11 343 16.1 27.4 0.00 0.10 0.03 78 1024.7
20180217194025 11 324 17.7 30.6 0.00 0.10 0.03 77 1024.7
20180217193028 11 318 17.7 29.0 0.00 0.10 0.03 77 1024.8
20180217192021 11 334 17.7 25.7 0.00 0.10 0.03 77 1024.8
20180217191016 11 338 17.7 27.4 0.00 0.10 0.03 78 1024.8
20180217190017 12 341 17.7 30.6 0.00 0.10 0.03 77 1024.8
20180217185232 12 341 19.3 27.4 0.00 0.10 0.03 77 1024.7